Cancun, Mexico

8:00 AM on February 18, 2018 (GMT +0000)
Cancun International

Weather History for MMUN - September, 2013

Change the Weather History Date:

Sunday, September 1, 2013

  Actual Average Record
Temperature  
Mean Temperature 80 °F -  
Max Temperature 86 °F 89 °F 95 °F (2004)
Min Temperature 75 °F 73 °F 69 °F (2000)
Cooling Degree Days 16    
Growing Degree Days 30 (Base 50)    
Moisture  
Dew Point 76 °F    
Average Humidity 86    
Maximum Humidity 100    
Minimum Humidity 74    
Precipitation  
Precipitation 0.55 in - - ()
Sea Level Pressure  
Sea Level Pressure 29.92 in    
Wind  
Wind Speed 4 mph ()    
Max Wind Speed 14 mph    
Max Gust Speed -    
Visibility 6.3 miles    
Events Rain    
Averages and records for this station are not official NWS values.
T = Trace of Precipitation, MM = Missing Value Source: Averaged Metar Reports

Daily Weather History Graph

Daily Weather History Graph

Search for Another Location

Airport or City:

Trip Planner

Search our weather history database for the weather conditions in past years. The results will help you decide how hot, cold, wet, or windy it might be!

Date:

Astronomy

Sep. 01, 2013 Rise Set
Actual Time 6:31 AM CDT 7:03 PM CDT
Civil Twilight 6:08 AM CDT 7:25 PM CDT
Nautical Twilight 5:42 AM CDT 7:51 PM CDT
Astronomical Twilight 5:15 AM CDT 8:18 PM CDT
Moon 3:10 AM CDT (9/1) 4:25 PM CDT (9/1)
Length of Visible Light 13h 16m
Length of Day
12h 31m
Waning Crescent, 13% of the Moon is Illuminated
Sep 1
Waning Crescent
Sep 5
New
Sep 12
First Quarter
Sep 19
Full
Sep 26
Last Quarter

Hourly Weather History & Observations

Time (CDT) Temp. Heat Index Dew Point Humidity Pressure Visibility Wind Dir Wind Speed Gust Speed Precip Events Conditions
12:46 AM 77.0 °F - 75.2 °F 94% 29.93 in 6.0 mi Calm Calm - N/A   Scattered Clouds
1:42 AM 78.8 °F - 77.0 °F 94% 29.91 in 6.0 mi ENE 3.5 mph - N/A   Mostly Cloudy
2:43 AM 77.0 °F - 73.4 °F 89% 29.90 in 6.0 mi Calm Calm - N/A   Mostly Cloudy
3:47 AM 77.0 °F - 75.2 °F 94% 29.94 in 6.0 mi Calm Calm - N/A   Scattered Clouds
4:43 AM 77.0 °F - 75.2 °F 94% 29.88 in 6.0 mi Calm Calm - N/A   Scattered Clouds
5:44 AM 75.2 °F - 75.2 °F 100% 29.88 in 6.0 mi Calm Calm - N/A   Mostly Cloudy
6:44 AM 77.0 °F - 75.2 °F 94% 29.90 in 7.0 mi Calm Calm - N/A   Mostly Cloudy
7:43 AM 82.4 °F 90.9 °F 77.0 °F 84% 29.90 in 7.0 mi East 4.6 mph - N/A   Mostly Cloudy
8:42 AM 84.2 °F 94.1 °F 77.0 °F 79% 29.93 in 7.0 mi ESE 4.6 mph - N/A   Mostly Cloudy
9:43 AM 82.4 °F 92.4 °F 78.8 °F 89% 29.94 in 7.0 mi ESE 6.9 mph - N/A   Mostly Cloudy
10:44 AM 86.0 °F 96.9 °F 77.0 °F 74% 29.95 in 7.0 mi East 6.9 mph - N/A   Mostly Cloudy
11:41 AM 86.0 °F 96.9 °F 77.0 °F 74% 29.96 in 7.0 mi ESE 9.2 mph - N/A   Mostly Cloudy
12:41 PM 84.2 °F 94.1 °F 77.0 °F 79% 29.93 in 7.0 mi ESE 9.2 mph - N/A   Mostly Cloudy
1:41 PM 78.8 °F - 73.4 °F 83% 29.93 in 3.0 mi ESE 13.8 mph - N/A Rain Rain
2:05 PM 82.4 °F 90.9 °F 77.0 °F 84% - 6.0 mi ESE 4.6 mph - N/A   Mostly Cloudy
2:45 PM 82.4 °F 90.9 °F 77.0 °F 84% 29.89 in 6.0 mi ESE 9.2 mph - N/A   Mostly Cloudy
3:41 PM 84.2 °F 94.1 °F 77.0 °F 79% 29.89 in 6.0 mi ESE 5.8 mph - N/A   Mostly Cloudy
4:43 PM 84.2 °F 94.1 °F 77.0 °F 79% 29.89 in 7.0 mi East 4.6 mph - N/A   Mostly Cloudy
5:42 PM 84.2 °F 94.1 °F 77.0 °F 79% 29.87 in 7.0 mi ENE 3.5 mph - N/A   Mostly Cloudy
6:45 PM 82.4 °F 89.5 °F 75.2 °F 79% 29.88 in 7.0 mi ENE 4.6 mph - N/A   Mostly Cloudy
7:42 PM 80.6 °F 87.1 °F 77.0 °F 89% 29.91 in 7.0 mi East 4.6 mph - N/A   Mostly Cloudy
8:49 PM 80.6 °F 86.2 °F 75.2 °F 84% 29.95 in 7.0 mi ESE 11.5 mph - N/A   Mostly Cloudy
9:47 PM 78.8 °F - 73.4 °F 83% 29.96 in 7.0 mi East 12.7 mph - N/A   Mostly Cloudy
10:23 PM 78.8 °F - 75.2 °F 89% 29.98 in 5.0 mi East 8.1 mph - N/A Rain Light Rain
10:48 PM 78.8 °F - 75.2 °F 89% 29.98 in 6.0 mi ESE 9.2 mph - N/A   Mostly Cloudy
11:46 PM 78.8 °F - 77.0 °F 94% 29.96 in 6.0 mi ENE 8.1 mph - N/A   Mostly Cloudy